Regional Weather Roundup
Issued by NWS

Home | Current Version | Previous Version | Text Only | Print | Product List | Glossary Off
Versions: 1 2 3 4 5 6 7 8 9 10 11 12 13 14 15 16 17 18 19 20 21 22 23 24 25 26 27

000
ASUS45 KCYS 261410
RWRWY

WYOMING REGIONAL WEATHER ROUNDUP
NATIONAL WEATHER SERVICE CHEYENNE WY
800 AM MDT MON JUN 26 2017

NOTE:  "FAIR" INDICATES FEW OR NO CLOUDS BELOW 12,000 FEET
WITH NO SIGNIFICANT WEATHER AND/OR OBSTRUCTIONS TO VISIBILITY.

WYZ001-261500-
YELLOWSTONE NATIONAL PARK

CITY           SKY/WX    TMP DP  RH WIND       PRES   REMARKS
LK YELLOWSTONE   N/A     48  42  80 CALM      30.41F
W YELLOWSTONE  NOT AVBL

$$
WYZ002>013-054>058-071-098>099-261500-
NORTHERN WYOMING

CITY           SKY/WX    TMP DP  RH WIND       PRES   REMARKS
JACKSON        SUNNY     52  39  62 CALM      30.35S
CODY           FAIR      66  37  34 S13       30.23
GREYBULL       FAIR      62  37  39 CALM      30.18F
WORLAND        FAIR      62  44  51 CALM      30.19S
SHERIDAN       FAIR      56  44  64 CALM      30.18F
BUFFALO        FAIR      64  43  46 CALM      30.23S
GILLETTE       FAIR      62  37  39 S16G26    30.22F
NEWCASTLE      FAIR      55  32  41 S5        30.29S

$$
WYZ014>020-022>026-101>103-261500-
CENTRAL WYOMING

CITY           SKY/WX    TMP DP  RH WIND       PRES   REMARKS
BIG PINEY      FAIR      54  40  59 N3        30.38F
PINEDALE       FAIR      52  41  66 NW5       30.38F
DUBOIS         FAIR      50  34  53 NW13      30.37S
LANDER         FAIR      59  44  57 CALM      30.28F
RIVERTON       FAIR      60  40  47 W6        30.28F
CASPER         FAIR      58  37  45 W3        30.28F
DOUGLAS        FAIR      57  40  52 CALM      30.28F

$$
WYZ021-027>030-104>119-261500-
SOUTHERN WYOMING

CITY           SKY/WX    TMP DP  RH WIND       PRES   REMARKS
EVANSTON       FAIR      59  38  45 E8        30.34R
KEMMERER         N/A     59  32  36 NE15      30.36S
FORT BRIDGER   FAIR      57  34  41 CALM      30.38R
ROCK SPRINGS   FAIR      58  30  34 SE3       30.34S
DIXON          FAIR      58  32  37 E3        30.37S
RAWLINS        FAIR      58  33  39 SE6       30.36S
SARATOGA       FAIR      57  37  47 E10       30.38F
LARAMIE        FAIR      55  41  59 MISG      30.38S
CHEYENNE       FAIR      60  45  57 VRB5      30.33S
TORRINGTON     FAIR      57  40  52 NW3       30.25S
PINE BLUFFS    FAIR      59  50  72 N3        30.29F

$$




USA.gov is the U.S. government's official web portal to all federal, state and local government web resources and services.